Regional Weather Roundup
Issued by NWS Albany, NY

Home | Current Version | Previous Version | Text Only | Print | Product List | Glossary On
Versions: 1 2 3 4 5 6 7 8 9 10 11 12 13 14 15 16 17 18 19 20 21 22 23 24 25 26 27 28 29 30 31 32 33 34 35 36 37 38 39 40 41 42 43 44 45 46 47 48 49 50
336
ASUS41 KALY 221510
RWRALY

NEW YORK STATE HOURLY WEATHER ROUNDUP
NATIONAL WEATHER SERVICE ALBANY NY
1000 AM EST WED FEB 22 2017

NOTE: "FAIR" INDICATES FEW OR NO CLOUDS BELOW 12,000 FEET WITH NO
SIGNIFICANT WEATHER AND/OR NO OBSTRUCTIONS TO VISIBILITY.

NYZ032-033-038>043-046>054-057>066-NYZ062>081-082-084-221600-
EAST


CITY           SKY/WX    TMP DP  RH WIND       PRES   REMARKS
ALBANY         PTSUNNY   45  32  60 S7        30.00F
GLENS FALLS    PTSUNNY   44  31  60 SW8       29.99F
POUGHKEEPSIE   CLOUDY    45  35  68 W3        30.01F
NEWBURGH       CLOUDY    43  36  75 SW7       30.02F
MONTGOMERY     CLOUDY    44  36  73 SW8       29.99F
WHITE PLAINS   CLOUDY    43  35  73 VRB5      30.01F
ISLIP          LGT RAIN  47  40  76 SW9       30.03F
NEW YORK CITY  CLOUDY    49  36  61 SW6       30.03F
CENTRAL PARK   CLOUDY    46  36  68 W7        30.05F
$$

NYZ005>009-017-018-044>046-055-056-221600-
CENTRAL


CITY           SKY/WX    TMP DP  RH WIND       PRES   REMARKS
FULTON         CLOUDY    46  32  58 SE6       29.94F
SYRACUSE       PTSUNNY   46  34  62 E6        29.94F
ROME           CLOUDY    44  33  65 SE9       29.98S
ELMIRA         PTSUNNY   48  32  53 CALM      29.94F
BINGHAMTON     CLOUDY    42  33  70 CALM      29.94F
MONTICELLO     MOSUNNY   41  34  75 MISG      30.00S
$$

NYZ026>034-041>043-087-221600-
NORTH


CITY           SKY/WX    TMP DP  RH WIND       PRES   REMARKS
WATERTOWN      CLOUDY    48  36  63 N3        29.93S
FORT DRUM      NOT AVBL
OGDENSBURG     CLOUDY    42  34  72 CALM      29.95S
MASSENA        CLOUDY    40  33  76 NE3       29.97S
SARANAC LAKE   MOSUNNY   43  36  76 SW7G20    29.90F
PLATTSBURGH    MOSUNNY   40  30  67 SE8       29.96F WCI  34
$$

NYZ001>004-010>016-019>021-085-221600-
WEST


CITY           SKY/WX    TMP DP  RH WIND       PRES   REMARKS
NIAGARA FALLS  MOSUNNY   52  42  69 S6        29.88S
BUFFALO        MOSUNNY   55  42  61 SW7       29.89F
DUNKIRK        PTSUNNY   57  46  66 S10       29.89F
JAMESTOWN      CLOUDY    48  37  66 S6        29.91F
WELLSVILLE     CLOUDY    55  40  56 SW8       29.93F
ROCHESTER      MOSUNNY   52  37  56 SW5       29.91F
PENN YAN       PTSUNNY   52  34  50 SW7       29.92F
$$

             KEY
       WCI = WIND CHILL INDEX
       VSB = VISIBILITY
       HX  = HEAT INDEX
$$




USA.gov is the U.S. government's official web portal to all federal, state and local government web resources and services.